This demonstration page uses our WeatherBlox Daily Observations layout. Learn more.

Left ArrowRight Arrow

41.55636, -103.73856

Hourly Observations for February 23, 2020

Temp ( °F °C ) Dew Point ( °F °C ) Humidity (%) Winds ( mph kmh ) Pressure ( in mb ) Visibility ( mi km ) Precip ( " mm )
12:58 am 00:58 Clear 40 4.2 15 -9.2 37 37 WSW 8 13 30.03 1017 10 16 N/A
1:58 am 01:58 Clear 39 3.9 16 -8.8 39 39 WSW 7 11 30.06 1018 10 16 N/A
2:58 am 02:58 Mostly Cloudy 36 2.4 19 -7.3 49 49 WSW 7 11 30.05 1018 10 16 N/A
3:58 am 03:58 Mostly Clear 38 3.5 18 -7.7 44 44 WSW 3 6 30.01 1016 10 16 N/A
4:58 am 04:58 Mostly Cloudy 38 3.4 18 -7.6 45 45 W 5 7 29.99 1016 10 16 N/A
5:58 am 05:58 Mostly Cloudy 34 0.9 19 -7.2 55 55 SW 6 9 29.98 1015 10 16 N/A
6:58 am 06:58 Mostly Cloudy 36 2.4 20 -6.8 51 51 WSW 6 9 29.98 1015 10 16 N/A
7:58 am 07:58 Mostly Cloudy 36 2.4 19 -7.5 48 48 SW 5 7 29.98 1015 10 16 N/A
8:58 am 08:58 Mostly Cloudy 37 2.5 18 -7.9 47 47 W 3 6 29.97 1015 10 16 N/A
9:58 am 09:58 Cloudy 34 1 17 -8.1 51 51 N N/A 29.98 1015 10 16 N/A
10:58 am 10:58 Mostly Cloudy 33 0.5 18 -7.8 54 54 N N/A 29.98 1015 10 16 N/A
11:58 am 11:58 Mostly Cloudy 32 -0.1 17 -8.2 55 55 WSW 3 6 30.03 1017 10 16 N/A
12:58 pm 12:58 Cloudy 34 0.9 19 -7.4 54 54 WSW 3 6 30.05 1018 10 16 N/A
1:58 pm 13:58 Cloudy 33 0.5 20 -6.6 59 59 N N/A 30.07 1018 10 16 N/A
2:58 pm 14:58 Mostly Cloudy 34 1.1 20 -6.5 57 57 N N/A 30.09 1019 10 16 N/A
3:58 pm 15:58 Mostly Cloudy 35 1.9 21 -6.2 55 55 N N/A 30.09 1019 10 16 N/A
4:58 pm 16:58 Sunny 39 4.1 17 -8.4 40 40 N N/A 30.08 1019 10 16 N/A
5:58 pm 17:58 Partly Cloudy 41 5 15 -9.5 35 35 N N/A 30.09 1019 10 16 N/A
6:58 pm 18:58 Mostly Cloudy 42 5.8 14 -9.8 32 32 ESE 9 15 30.07 1018 10 16 N/A
7:58 pm 19:58 Partly Cloudy 43 6.2 15 -9.7 31 31 E 5 7 30.03 1017 10 16 N/A
8:58 pm 20:58 Mostly Cloudy 44 6.6 15 -9.6 31 31 S 6 9 30.00 1016 10 16 N/A
9:58 pm 21:58 Mostly Cloudy 44 6.7 19 -7.5 36 36 N N/A 30.01 1016 10 16 N/A
10:58 pm 22:58 Sunny 44 6.7 21 -6 40 40 N 7 11 29.98 1015 10 16 N/A
11:58 pm 23:58 Sunny 44 6.4 21 -6.2 40 40 N N/A 30.00 1016 10 16 N/A

Powered by AerisWeather